Weather Service Report


014 
ASUS44 KMEG 172110
RWRTN 
TENNESSEE HOURLY STATE WEATHER ROUNDUP
NATIONAL WEATHER SERVICE MEMPHIS TN
300 PM CST FRI NOV 17 2017

TNZ002-004-019-021-049-052-054-088>092-172200-
WEST TENNESSEE
  
CITY           SKY/WX    TMP DP  RH WIND       PRES   REMARKS
MEMPHIS INTL   MOSUNNY   73  57  57 S20G26    29.89F                  
NWS MEMPHIS      N/A     72 N/A N/A MISG        N/A                   
JACKSON        PTSUNNY   68  50  52 S7        29.93F                  
DYERSBURG      MOSUNNY   67  53  61 S8G21     29.90F                  
SOMERVILLE     SUNNY     72  54  53 S10G21    29.91F                  
COVINGTON      PTSUNNY   70  54  56 S10       29.90F                  
UNION CITY     MOSUNNY   66  48  52 S10       29.89F                  
BOLIVAR        SUNNY     70  52  52 SE10G20   29.93F                  
PARIS          PTSUNNY   63  46  55 S12       29.92F                  
HUNTINGDON     PTSUNNY   64  46  52 S10       29.93F                  
LEXINGTON      CLOUDY    66  43  42 S8        29.96F                  
SELMER         CLOUDY    66  48  52 S10       29.97S                  
SAVANNAH       CLOUDY    66  46  48 SE3       29.97F                  
$$

TNZ008-025-027-028-033-062-065-066-172200-
NORTH MIDDLE TENNESSEE
  
CITY           SKY/WX    TMP DP  RH WIND       PRES   REMARKS
NASHVILLE      PTSUNNY   66  32  28 S9        30.01F                  
PORTLAND       SUNNY     59  43  55 S5        30.00F                  
CLARKSVILLE    PTSUNNY   62  39  42 SE8       29.96F                  
SMYRNA         SUNNY     64  34  32 S5        30.02S                  
COOKEVILLE     SUNNY     64  32  29 S8        30.01S                  
GALLATIN       SUNNY     61  43  51 CALM      30.03F                  
CROSSVILLE     SUNNY     59  32  36 VRB6      30.05F                  
$$

TNZ061-075-076-078-094-096-097-172200-
SOUTH MIDDLE TENNESSEE
  
CITY           SKY/WX    TMP DP  RH WIND       PRES   REMARKS
FAYETTEVILLE   SUNNY     66  28  24 SW8G16    30.01F                  
TULLAHOMA      SUNNY     66  28  24 S8        30.01S                  
WINCHESTER     SUNNY     66  34  30 S9        30.02F                  
MCMINNVILLE    SUNNY     66  28  24 SW6G13    30.01S                  
COLUMBIA       PTSUNNY   66  34  30 S7        29.99S                  
SHELBYVILLE    SUNNY     66  34  30 S9        30.01S                  
$$

TNZ017-018-042-046-047-172200-
NORTHEAST TENNESSEE
  
CITY           SKY/WX    TMP DP  RH WIND       PRES   REMARKS
TRI CITIES     MOSUNNY   62  26  25 W5        30.08F                  
ELIZABETHTON   SUNNY     63  25  23 W7        30.07F                  
$$

TNZ012-013-036-069-073-074-172200-
CENTRAL EAST TENNESSEE
  
CITY           SKY/WX    TMP DP  RH WIND       PRES   REMARKS
KNOXVILLE      PTSUNNY   62  41  46 N3        30.05F                  
OAK RIDGE      SUNNY     63  36  36 S5        30.07F                  
DOWNTOWN KNOXV SUNNY     63  37  39 CALM      30.06S                  
GATLINBURG     SUNNY     61  36  39 E5        30.06F                  
MORRISTOWN     SUNNY     59  34  38 CALM      30.06F                  
JACKSBORO      SUNNY     63  34  34 S5        30.09S                  
$$

TNZ083-085-099-172200-
SOUTHEAST TENNESSEE
  
CITY           SKY/WX    TMP DP  RH WIND       PRES   REMARKS
CHATTANOOGA    PTSUNNY   66  36  32 S6        30.06F                  
$$

SKY/WX REPORTED AS FAIR MEANS FEW OR NO CLOUDS BELOW
12 THOUSAND FEET.

  


016 
ASUS44 KMEG 172110
RWRMEG
MEMPHIS CWA HOURLY WEATHER ROUNDUP
NATIONAL WEATHER SERVICE MEMPHIS TN
300 PM CST FRI NOV 17 2017

...WEST TENNESSEE...
  
CITY           SKY/WX    TMP DP  RH WIND       PRES   REMARKS
MEMPHIS INTL   MOSUNNY   73  57  57 S20G26    29.89F                  
NWS MEMPHIS      N/A     72 N/A N/A MISG        N/A                   
JACKSON        PTSUNNY   68  50  52 S7        29.93F                  
COVINGTON      PTSUNNY   70  54  56 S10       29.90F                  
SOMERVILLE     SUNNY     72  54  53 S10G21    29.91F                  
BOLIVAR        SUNNY     70  52  52 SE10G20   29.93F                  
LEXINGTON      CLOUDY    66  43  42 S8        29.96F                  
SELMER         CLOUDY    66  48  52 S10       29.97S                  
SAVANNAH       CLOUDY    66  46  48 SE3       29.97F                  
DYERSBURG      MOSUNNY   67  53  61 S8G21     29.90F                  
UNION CITY     MOSUNNY   66  48  52 S10       29.89F                  
PARIS          PTSUNNY   63  46  55 S12       29.92F                  
HUNTINGDON     PTSUNNY   64  46  52 S10       29.93F                  


...EASTERN ARKANSAS...
  
CITY           SKY/WX    TMP DP  RH WIND       PRES   REMARKS
JONESBORO      SUNNY     71  60  68 S16G25    29.84F                  
WEST MEMPHIS   MOSUNNY   72  59  63 S22G29    29.86F HAZE             
BATESVILLE     CLOUDY    68  60  75 S9        29.80F                  
NEWPORT        CLOUDY    69  59  70 S15       29.83F                  
WALNUT RIDGE     N/A    N/A N/A N/A MISG        N/A                   
BLYTHEVILLE    PTSUNNY   70  55  59 S14       29.87F                  
NW BLYTHEVILLE PTSUNNY   70  55  60 S12G21    29.86F                  
PINE BLUFF     CLOUDY    75  61  61 S21G26    29.85F                  
MONTICELLO     MOSUNNY   76  61  59 SW15G21   29.89F                  


...NORTH MISSISSIPPI...
  
CITY           SKY/WX    TMP DP  RH WIND       PRES   REMARKS
TUPELO         SUNNY     71  51  49 SE9       29.98F                  
OXFORD         MOSUNNY   72  55  56 S12G20    29.95F                  
BATESVILLE     PTSUNNY   74  54  48 S10G22    29.93F                  
OLIVE BRANCH   MOSUNNY  N/A N/A N/A S12       29.90F                  
TUNICA           N/A    N/A N/A N/A S16G23    29.90F                  
CLARKSDALE       N/A     75  59  57 S17G23    29.91F                  
CORINTH        CLOUDY    68  46  45 S9        29.97S                  
GREENWOOD      SUNNY     77  57  50 S12       29.93F                  
COLUMBUS       SUNNY     71  57  60 SE9       29.99F                  
STARKVILLE     SUNNY     72  55  56 S8        30.00F                  
GOLDEN TRIANGL SUNNY     71  55  56 S12       30.00F                  


...SOUTHEAST MISSOURI...
  
CITY           SKY/WX    TMP DP  RH WIND       PRES   REMARKS
KENNETT        MOSUNNY   70  57  64 S17G24    29.83F HAZE             
MALDEN         CLOUDY    66  52  59 S17       29.84F                  
WEST PLAINS    CLOUDY    60  55  83 S16G24    29.77F                  
POPLAR BLUFF   CLOUDY    63  52  67 S9        29.82F                  
CAPE GIRARDEAU CLOUDY    56  47  71 SE10      29.85F                  


...NORTHWEST ALABAMA...
  
CITY           SKY/WX    TMP DP  RH WIND       PRES   REMARKS
MUSCLE SHOALS  SUNNY     69  41  36 S7        30.01F                  


...MIDDLE TENNESSEE...
  
CITY           SKY/WX    TMP DP  RH WIND       PRES   REMARKS
NASHVILLE      PTSUNNY   66  32  28 S9        30.01F                  
CLARKSVILLE    PTSUNNY   62  39  42 SE8       29.96F                  
COLUMBIA       PTSUNNY   66  34  30 S7        29.99S                  


...WESTERN KENTUCKY...
  
CITY           SKY/WX    TMP DP  RH WIND       PRES   REMARKS
PADUCAH        PTSUNNY   61  44  53 SE10      29.89F                  
FORT CAMPBELL  PTSUNNY   60  41  48 SE6       29.95F                  


...CENTRAL ARKANSAS...
  
CITY           SKY/WX    TMP DP  RH WIND       PRES   REMARKS
LITTLE ROCK    CLOUDY    72  64  76 S12       29.83F                  


SKY/WX REPORTED AS FAIR MEANS FEW OR NO CLOUDS BELOW
12 THOUSAND FEET.

  

Return to Home page


Western Regional Climate Center, wrcc@dri.edu